Regional Weather Roundup
Issued by NWS

Home | Current Version | Previous Version | Text Only | Print | Product List | Glossary Off
Versions: 1 2 3 4 5 6 7 8 9 10 11 12 13 14 15 16 17 18 19 20 21 22 23 24 25 26 27 28 29 30 31 32 33 34 35 36 37 38 39 40 41 42 43 44 45 46 47 48 49 50

000
ASUS43 KLOT 251904
RWRIL

ILLINOIS REGIONAL WEATHER ROUNDUP
NATIONAL WEATHER SERVICE CHICAGO/ROMEOVILLE IL
200 PM CDT SUN JUN 25 2017

NOTE: "FAIR" INDICATES FEW OR NO CLOUDS BELOW 12,000 FEET WITH NO
SIGNIFICANT WEATHER AND/OR OBSTRUCTIONS TO VISIBILITY.

* THESE STATIONS ARE NOT UNDER NWS QUALITY CONTROL. THEY ALSO MAY NOT
  REPORT WEATHER SUCH AS PRECIPITATION OR FOG.

ILZ001-002-007-009-015-016-024-252000-
NORTHWEST ILLINOIS

CITY           SKY/WX    TMP DP  RH WIND       PRES   REMARKS
MOLINE         CLOUDY    68  48  48 W15G25    30.17S
STERLING*      CLOUDY    67  49  52 W18       30.15S
SAVANNA*       PTSUNNY   65  50  57 NW14G24   30.16S
$$

ILZ003-004-008-010-011-017-018-252000-
NORTH CENTRAL ILLINOIS

CITY           SKY/WX    TMP DP  RH WIND       PRES   REMARKS
ROCKFORD       CLOUDY    69  49  48 W15       30.13S
FREEPORT*      CLOUDY    66  49  54 W16G22    30.15S
ROCHELLE*      CLOUDY    66  49  54 W18       30.14S
DE KALB*       PTSUNNY   69  49  48 W15G25    30.12S
PERU*          CLOUDY    67  47  48 NW17      30.15S
$$

ILZ005-006-012>014-019>023-252000-
NORTHEAST ILLINOIS

CITY           SKY/WX    TMP DP  RH WIND       PRES   REMARKS
CHICAGO-OHARE  PTSUNNY   70  45  40 W18G24    30.08F
CHICAGO-MIDWAY PTSUNNY   70  46  42 W15       30.10S
AURORA         CLOUDY    69  45  41 W17       30.12S
LANSING*       CLOUDY    69  42  36 W14G24    30.11S
JOLIET*        CLOUDY    72  45  37 W10G18    30.12S
WAUKEGAN       MOSUNNY   70  49  47 W10G18    30.07S
DUPAGE AIRPORT CLOUDY    67  47  48 W17       30.10S
WHEELING       MOSUNNY   70  47  43 W17G24    30.10S
MORRIS*        CLOUDY    72  44  36 W18       30.11S
ROMEOVILLE*    CLOUDY    71  41  33 W16G23    30.11F
NORTHERLY ISL    N/A     69  42  37 NW10        N/A
$$

LMZ740>746-252000-
SOUTHERN LAKE MICHIGAN

STATION/POSITION SKY/WX   TEMP    WIND        PRES    VSBY  WAVE
                          AIR SEA DIR/SP/G                  HT/PER
                          (F)     (DEG/KT/KT) (MB)    (MI)  (FT/S)
SOUTHERN BUOY              62 61  270/ 12/ 14 1018.2          3/ 4
WILMETTE HARBOR            67 64  280/ 12/ 17   N/A           2/ 3
HARRISON CRIB              68     250/ 13/ 19   N/A
BURNHAM HARBOR             69                   N/A
CALUMET HARBOR             70     270/  5/ 12 1018.6F
BURNS HARBOR               67     290/ 14/ 17 1019.3F
MICHIGAN CITY              66     270/ 13/ 15   N/A
MICHIGAN CITY 6N           66 66  300/  8/ 10   N/A           3/ 3
ST. JOSEPH                 65 69  280/ 12/ 16 1019.2F         4/ 5
$$

ILZ025>027-034>036-040-047-049-050-058-095>099-252000-
WEST-CENTRAL ILLINOIS

CITY           SKY/WX    TMP DP  RH WIND       PRES   REMARKS
QUINCY         SUNNY     73  46  38 NW21G26   30.21S
GALESBURG*     PTSUNNY   71  51  49 W15G24    30.19S
MACOMB*        PTSUNNY   70  47  43 NW21      30.22S
JACKSONVILLE*  SUNNY     75  47  35 W15       30.18F
PITTSFIELD*    SUNNY     76  45  33 W18G26    30.21S
$$

ILZ028>032-037-038-041>044-048-051>054-059>061-252000-
CENTRAL ILLINOIS

CITY           SKY/WX    TMP DP  RH WIND       PRES   REMARKS
PONTIAC        PTSUNNY   73  47  38 W20G28    30.15S
BLOOMINGTON    MOSUNNY   71  46  40 NW20      30.16F
DECATUR        SUNNY     75  44  33 W10       30.16F
PEORIA         PTSUNNY   70  47  43 NW13G21   30.17S
LACON*         PTSUNNY   70  49  46 NW13G23   30.15S
LINCOLN*       MOSUNNY   75  46  35 W10G17    30.16F
SPRINGFIELD    SUNNY     77  46  33 W16G25    30.17F
TAYLORVILLE    SUNNY     76  46  34 W10G20    30.17F
$$

ILZ033-039-045-046-055>057-062-063-252000-
EAST-CENTRAL ILLINOIS

CITY           SKY/WX    TMP DP  RH WIND       PRES   REMARKS
CHAMPAIGN      SUNNY     75  44  33 W13G25    30.15F
RANTOUL*       MOSUNNY   76  48  37 NW10G21   30.15F
MATTOON        SUNNY     76  49  38 W17G25    30.16S
PARIS*         MOSUNNY   74  49  41 W17G24    30.16F
$$

ILZ079-100>102-252000-
SOUTHWEST ILLINOIS

CITY           SKY/WX    TMP DP  RH WIND       PRES   REMARKS
ALTON          MOSUNNY   77  54  44 W12G21    30.20F
BELLEVILLE     MOSUNNY   81  49  32 NW12G18   30.19F HX  80
CAHOKIA*       SUNNY     84  41  21 W15G23    30.19F HX  81
SPARTA*        SUNNY     82  48  31 NW7       30.21S HX  80
$$

ILZ064>066-069>071-074>076-080>082-084>086-088>090-092>094-252000-
SOUTH-CENTRAL ILLINOIS

CITY           SKY/WX    TMP DP  RH WIND       PRES   REMARKS
CARBONDALE     SUNNY     82  48  30 NW10G20   30.19F HX  81
CAIRO*         SUNNY     82  55  40 W9        30.20F HX  81
EFFINGHAM*     SUNNY     79  47  32 W17G24    30.19S
MARION         MOSUNNY   82  48  30 W12       30.20F HX  81
CENTRALIA*     SUNNY     81  51  34 NW13G21   30.18F HX  80
SALEM*         SUNNY     80  45  28 W16G22    30.19F
METROPOLIS*    SUNNY     82  53  36 W7        30.21F HX  81
$$

ILZ067-068-072-073-078-083-087-091-252000-
SOUTHEAST ILLINOIS

CITY           SKY/WX    TMP DP  RH WIND       PRES   REMARKS
LAWRENCEVILLE  SUNNY     80  49  33 W21       30.16F
FLORA*         SUNNY    N/A N/A N/A NW18G24   30.18F
FAIRFIELD*     SUNNY     81  49  33 W5        30.17S HX  80
HARRISBURG*    SUNNY     82  53  36 W17G23    30.19F HX  81
ROBINSON*      MOSUNNY   77  49  36 NW15G24   30.16F
CARMI*         SUNNY     82  53  36 W15G22    30.17F HX  81
$$

ABBREVIATIONS USED IN REMARKS
   TC - TEMPERATURE IN CELSIUS
  WCI - WIND CHILL INDEX
   HX - HEAT INDEX
  VSB - VISIBILITY
$$





USA.gov is the U.S. government's official web portal to all federal, state and local government web resources and services.